Time,TemperatureF,DewpointF,PressureIn,WindDirection,WindDirectionDegrees,WindSpeedMPH,WindSpeedGustMPH,Humidity,HourlyPrecipIn,Conditions,Clouds,dailyrainin,SoftwareType,DateUTC
2013-02-03 00:02:00,56.5,54.8,30.18,WSW,255,4.0,4.0,94,0.00,,,0.00,Wunderground v.1.15,2013-02-03 06:02:00,
2013-02-03 00:07:00,56.6,54.6,30.18,WNW,288,4.0,4.0,93,0.00,,,0.00,Wunderground v.1.15,2013-02-03 06:07:00,
2013-02-03 00:13:00,56.7,54.7,30.18,West,277,4.0,4.0,93,0.00,,,0.00,Wunderground v.1.15,2013-02-03 06:13:00,
2013-02-03 00:19:00,56.8,54.8,30.18,West,279,3.0,5.0,93,0.00,,,0.00,Wunderground v.1.15,2013-02-03 06:19:00,
2013-02-03 00:25:00,57.0,54.7,30.18,West,259,4.0,5.0,92,0.00,,,0.00,Wunderground v.1.15,2013-02-03 06:25:00,
2013-02-03 00:31:00,57.2,54.6,30.18,West,274,4.0,4.0,91,0.00,,,0.00,Wunderground v.1.15,2013-02-03 06:31:00,
2013-02-03 00:37:00,57.4,54.8,30.18,WNW,283,4.0,5.0,91,0.00,,,0.00,Wunderground v.1.15,2013-02-03 06:37:00,
2013-02-03 00:43:00,57.5,54.6,30.19,NW,314,2.0,4.0,90,0.00,,,0.00,Wunderground v.1.15,2013-02-03 06:43:00,
2013-02-03 00:48:00,57.7,54.8,30.19,NW,314,3.0,7.0,90,0.00,,,0.00,Wunderground v.1.15,2013-02-03 06:48:00,
2013-02-03 00:54:00,57.9,54.7,30.19,WNW,297,3.0,5.0,89,0.00,,,0.00,Wunderground v.1.15,2013-02-03 06:54:00,
2013-02-03 01:00:00,57.5,54.6,30.19,NNW,333,5.0,5.0,90,0.00,,,0.00,Wunderground v.1.15,2013-02-03 07:00:00,
2013-02-03 01:06:00,56.7,54.1,30.19,NW,310,4.0,5.0,91,0.00,,,0.00,Wunderground v.1.15,2013-02-03 07:06:00,
2013-02-03 01:12:00,56.1,53.8,30.19,WNW,293,2.0,4.0,92,0.00,,,0.00,Wunderground v.1.15,2013-02-03 07:12:00,
2013-02-03 01:18:00,55.6,53.3,30.19,NW,312,3.0,4.0,92,0.00,,,0.00,Wunderground v.1.15,2013-02-03 07:18:00,
2013-02-03 01:24:00,55.2,53.2,30.19,WNW,297,4.0,6.0,93,0.00,,,0.00,Wunderground v.1.15,2013-02-03 07:24:00,
2013-02-03 01:30:00,55.0,53.0,30.19,NNW,335,5.0,5.0,93,0.00,,,0.00,Wunderground v.1.15,2013-02-03 07:30:00,
2013-02-03 01:35:00,54.8,52.8,30.19,NW,316,4.0,5.0,93,0.00,,,0.00,Wunderground v.1.15,2013-02-03 07:35:00,
2013-02-03 01:41:00,54.6,52.6,30.19,NW,317,3.0,5.0,93,0.00,,,0.00,Wunderground v.1.15,2013-02-03 07:41:00,
2013-02-03 01:47:00,54.3,52.3,30.19,NW,306,5.0,5.0,93,0.00,,,0.00,Wunderground v.1.15,2013-02-03 07:47:00,
2013-02-03 01:53:00,54.2,52.2,30.19,NNW,330,5.0,6.0,93,0.00,,,0.00,Wunderground v.1.15,2013-02-03 07:53:00,
2013-02-03 01:59:00,54.2,52.5,30.19,NNW,333,9.0,9.0,94,0.00,,,0.00,Wunderground v.1.15,2013-02-03 07:59:00,
2013-02-03 02:04:00,54.3,52.3,30.20,NW,314,7.0,9.0,93,0.00,,,0.00,Wunderground v.1.15,2013-02-03 08:04:00,
2013-02-03 02:09:00,54.2,52.5,30.20,NNW,328,8.0,10.0,94,0.00,,,0.00,Wunderground v.1.15,2013-02-03 08:09:00,
2013-02-03 02:14:00,54.3,52.6,30.20,NNW,330,3.0,10.0,94,0.00,,,0.00,Wunderground v.1.15,2013-02-03 08:14:00,
2013-02-03 02:19:00,54.2,52.2,30.20,NW,316,5.0,10.0,93,0.00,,,0.00,Wunderground v.1.15,2013-02-03 08:19:00,
2013-02-03 02:24:00,54.2,52.2,30.19,NW,309,4.0,8.0,93,0.00,,,0.00,Wunderground v.1.15,2013-02-03 08:24:00,
2013-02-03 02:29:00,54.1,52.1,30.19,WNW,300,5.0,9.0,93,0.00,,,0.00,Wunderground v.1.15,2013-02-03 08:29:00,
2013-02-03 02:34:00,53.9,51.9,30.20,WNW,300,7.0,8.0,93,0.00,,,0.00,Wunderground v.1.15,2013-02-03 08:34:00,
2013-02-03 02:39:00,53.8,51.8,30.19,NW,325,3.0,8.0,93,0.00,,,0.00,Wunderground v.1.15,2013-02-03 08:39:00,
2013-02-03 02:44:00,53.7,51.7,30.20,NNW,336,5.0,7.0,93,0.00,,,0.00,Wunderground v.1.15,2013-02-03 08:44:00,
2013-02-03 02:49:00,53.9,51.9,30.20,NW,321,4.0,8.0,93,0.00,,,0.00,Wunderground v.1.15,2013-02-03 08:49:00,
2013-02-03 02:54:00,53.8,51.5,30.20,NNW,327,3.0,7.0,92,0.00,,,0.00,Wunderground v.1.15,2013-02-03 08:54:00,
2013-02-03 02:59:00,53.7,51.4,30.20,NW,321,4.0,7.0,92,0.00,,,0.00,Wunderground v.1.15,2013-02-03 08:59:00,
2013-02-03 03:04:00,53.6,51.3,30.20,NW,321,2.0,7.0,92,0.00,,,0.00,Wunderground v.1.15,2013-02-03 09:04:00,
2013-02-03 03:09:00,53.4,51.1,30.20,NNW,328,3.0,7.0,92,0.00,,,0.00,Wunderground v.1.15,2013-02-03 09:09:00,
2013-02-03 03:14:00,53.3,51.0,30.19,NNW,338,1.0,4.0,92,0.00,,,0.00,Wunderground v.1.15,2013-02-03 09:14:00,
2013-02-03 03:19:00,53.0,50.7,30.19,NNW,347,1.0,4.0,92,0.00,,,0.00,Wunderground v.1.15,2013-02-03 09:19:00,
2013-02-03 03:24:00,52.8,50.8,30.20,North,359,2.0,3.0,93,0.00,,,0.00,Wunderground v.1.15,2013-02-03 09:24:00,
2013-02-03 03:29:00,52.7,50.7,30.20,NNW,347,1.0,5.0,93,0.00,,,0.00,Wunderground v.1.15,2013-02-03 09:29:00,
2013-02-03 03:34:00,52.5,50.5,30.20,NNW,336,1.0,4.0,93,0.00,,,0.00,Wunderground v.1.15,2013-02-03 09:34:00,
2013-02-03 03:39:00,52.3,50.3,30.20,NW,312,2.0,4.0,93,0.00,,,0.00,Wunderground v.1.15,2013-02-03 09:39:00,
2013-02-03 03:44:00,52.2,49.9,30.20,North,352,1.0,5.0,92,0.00,,,0.00,Wunderground v.1.15,2013-02-03 09:44:00,
2013-02-03 03:49:00,52.0,49.7,30.19,NNW,342,1.0,5.0,92,0.00,,,0.00,Wunderground v.1.15,2013-02-03 09:49:00,
2013-02-03 03:54:00,51.9,49.6,30.19,NW,311,1.0,3.0,92,0.00,,,0.00,Wunderground v.1.15,2013-02-03 09:54:00,
2013-02-03 03:59:00,51.7,49.5,30.19,NNW,334,1.0,4.0,92,0.00,,,0.00,Wunderground v.1.15,2013-02-03 09:59:00,
2013-02-03 04:04:00,51.6,49.4,30.19,North,352,2.0,3.0,92,0.00,,,0.00,Wunderground v.1.15,2013-02-03 10:04:00,
2013-02-03 04:09:00,51.4,49.2,30.19,North,4,2.0,3.0,92,0.00,,,0.00,Wunderground v.1.15,2013-02-03 10:09:00,
2013-02-03 04:14:00,51.2,49.2,30.19,North,3,1.0,2.0,93,0.00,,,0.00,Wunderground v.1.15,2013-02-03 10:14:00,
2013-02-03 04:19:00,51.1,49.1,30.19,NNE,12,1.0,3.0,93,0.00,,,0.00,Wunderground v.1.15,2013-02-03 10:19:00,
2013-02-03 04:24:00,50.9,48.9,30.19,North,352,1.0,2.0,93,0.00,,,0.00,Wunderground v.1.15,2013-02-03 10:24:00,
2013-02-03 04:29:00,50.7,48.7,30.20,North,11,1.0,3.0,93,0.00,,,0.00,Wunderground v.1.15,2013-02-03 10:29:00,
2013-02-03 04:34:00,50.5,48.8,30.20,North,356,2.0,3.0,94,0.00,,,0.00,Wunderground v.1.15,2013-02-03 10:34:00,
2013-02-03 04:39:00,50.4,48.7,30.20,North,7,1.0,3.0,94,0.00,,,0.00,Wunderground v.1.15,2013-02-03 10:39:00,
2013-02-03 04:44:00,50.2,48.5,30.20,NNW,348,1.0,2.0,94,0.00,,,0.00,Wunderground v.1.15,2013-02-03 10:44:00,
2013-02-03 04:49:00,49.9,48.2,30.20,NNW,334,1.0,2.0,94,0.00,,,0.00,Wunderground v.1.15,2013-02-03 10:49:00,
2013-02-03 04:54:00,49.6,48.2,30.20,NNW,335,1.0,1.0,95,0.00,,,0.00,Wunderground v.1.15,2013-02-03 10:54:00,
2013-02-03 04:59:00,49.3,47.9,30.20,NNW,336,1.0,1.0,95,0.00,,,0.00,Wunderground v.1.15,2013-02-03 10:59:00,
2013-02-03 05:04:00,49.1,47.7,30.20,NNE,22,2.0,2.0,95,0.00,,,0.00,Wunderground v.1.15,2013-02-03 11:04:00,
2013-02-03 05:09:00,49.0,47.9,30.20,NNE,22,1.0,2.0,96,0.00,,,0.00,Wunderground v.1.15,2013-02-03 11:09:00,
2013-02-03 05:14:00,48.9,47.8,30.20,NNE,22,1.0,1.0,96,0.00,,,0.00,Wunderground v.1.15,2013-02-03 11:14:00,
2013-02-03 05:19:00,48.7,47.6,30.20,NNE,21,1.0,1.0,96,0.00,,,0.00,Wunderground v.1.15,2013-02-03 11:19:00,
2013-02-03 05:24:00,48.7,47.6,30.21,North,6,1.0,2.0,96,0.00,,,0.00,Wunderground v.1.15,2013-02-03 11:24:00,
2013-02-03 05:29:00,48.6,47.5,30.21,North,360,1.0,3.0,96,0.00,,,0.00,Wunderground v.1.15,2013-02-03 11:29:00,
2013-02-03 05:34:00,48.5,47.4,30.21,NNW,333,1.0,1.0,96,0.00,,,0.00,Wunderground v.1.15,2013-02-03 11:34:00,
2013-02-03 05:39:00,48.3,47.2,30.21,NNW,333,1.0,1.0,96,0.00,,,0.00,Wunderground v.1.15,2013-02-03 11:39:00,
2013-02-03 05:44:00,48.3,47.5,30.21,North,6,2.0,2.0,97,0.00,,,0.00,Wunderground v.1.15,2013-02-03 11:44:00,
2013-02-03 05:49:00,48.3,47.5,30.21,NNE,18,2.0,3.0,97,0.00,,,0.00,Wunderground v.1.15,2013-02-03 11:49:00,
2013-02-03 05:54:00,48.4,47.3,30.21,NNE,12,1.0,2.0,96,0.00,,,0.00,Wunderground v.1.15,2013-02-03 11:54:00,
2013-02-03 05:59:00,48.2,47.1,30.21,NNW,345,1.0,2.0,96,0.00,,,0.00,Wunderground v.1.15,2013-02-03 11:59:00,
2013-02-03 06:04:00,47.9,46.8,30.21,NNW,345,1.0,2.0,96,0.00,,,0.00,Wunderground v.1.15,2013-02-03 12:04:00,
2013-02-03 06:09:00,47.8,46.7,30.21,NNW,336,1.0,2.0,96,0.00,,,0.00,Wunderground v.1.15,2013-02-03 12:09:00,
2013-02-03 06:14:00,47.6,46.5,30.22,NW,324,2.0,2.0,96,0.00,,,0.00,Wunderground v.1.15,2013-02-03 12:14:00,
2013-02-03 06:19:00,47.4,46.3,30.22,NNW,340,1.0,1.0,96,0.00,,,0.00,Wunderground v.1.15,2013-02-03 12:19:00,
2013-02-03 06:24:00,47.3,46.2,30.22,NNW,336,2.0,2.0,96,0.00,,,0.00,Wunderground v.1.15,2013-02-03 12:24:00,
2013-02-03 06:29:00,47.2,46.1,30.22,NNW,332,1.0,2.0,96,0.00,,,0.00,Wunderground v.1.15,2013-02-03 12:29:00,
2013-02-03 06:34:00,47.1,45.7,30.22,NNW,338,1.0,2.0,95,0.00,,,0.00,Wunderground v.1.15,2013-02-03 12:34:00,
2013-02-03 06:39:00,47.0,45.9,30.22,NNW,334,1.0,1.0,96,0.00,,,0.00,Wunderground v.1.15,2013-02-03 12:39:00,
2013-02-03 06:44:00,46.9,45.5,30.23,North,356,1.0,2.0,95,0.00,,,0.00,Wunderground v.1.15,2013-02-03 12:44:00,
2013-02-03 06:50:00,47.0,45.6,30.23,NNW,348,1.0,1.0,95,0.00,,,0.00,Wunderground v.1.15,2013-02-03 12:50:00,
2013-02-03 06:55:00,47.0,45.4,30.23,NNW,332,1.0,2.0,94,0.00,,,0.00,Wunderground v.1.15,2013-02-03 12:55:00,
2013-02-03 07:00:00,47.1,45.5,30.23,NNW,347,1.0,1.0,94,0.00,,,0.00,Wunderground v.1.15,2013-02-03 13:00:00,
2013-02-03 07:05:00,47.3,45.7,30.23,North,356,1.0,3.0,94,0.00,,,0.00,Wunderground v.1.15,2013-02-03 13:05:00,
2013-02-03 07:10:00,47.5,45.6,30.23,NNW,335,2.0,2.0,93,0.00,,,0.00,Wunderground v.1.15,2013-02-03 13:10:00,
2013-02-03 07:15:00,47.7,45.5,30.24,NW,325,1.0,2.0,92,0.00,,,0.00,Wunderground v.1.15,2013-02-03 13:15:00,
2013-02-03 07:20:00,47.8,45.6,30.24,NNW,336,1.0,1.0,92,0.00,,,0.00,Wunderground v.1.15,2013-02-03 13:20:00,
2013-02-03 07:25:00,47.9,45.4,30.24,North,1,1.0,3.0,91,0.00,,,0.00,Wunderground v.1.15,2013-02-03 13:25:00,
2013-02-03 07:30:00,48.1,45.6,30.24,NNW,328,1.0,1.0,91,0.00,,,0.00,Wunderground v.1.15,2013-02-03 13:30:00,
2013-02-03 07:35:00,48.3,45.8,30.24,NNW,330,1.0,2.0,91,0.00,,,0.00,Wunderground v.1.15,2013-02-03 13:35:00,
2013-02-03 07:40:00,48.8,46.0,30.24,NNW,338,1.0,2.0,90,0.00,,,0.00,Wunderground v.1.15,2013-02-03 13:40:00,
2013-02-03 07:45:00,49.4,46.0,30.25,NNW,342,1.0,4.0,88,0.00,,,0.00,Wunderground v.1.15,2013-02-03 13:45:00,
2013-02-03 07:50:00,50.0,46.3,30.25,NNW,340,2.0,2.0,87,0.00,,,0.00,Wunderground v.1.15,2013-02-03 13:50:00,
2013-02-03 07:55:00,50.5,46.2,30.25,NNE,19,3.0,4.0,85,0.00,,,0.00,Wunderground v.1.15,2013-02-03 13:55:00,
2013-02-03 08:00:00,50.9,46.2,30.25,North,6,1.0,4.0,84,0.00,,,0.00,Wunderground v.1.15,2013-02-03 14:00:00,
2013-02-03 08:05:00,51.3,46.3,30.25,North,4,3.0,4.0,83,0.00,,,0.00,Wunderground v.1.15,2013-02-03 14:05:00,
2013-02-03 08:10:00,51.7,46.4,30.25,NNW,342,1.0,2.0,82,0.00,,,0.00,Wunderground v.1.15,2013-02-03 14:10:00,
2013-02-03 08:15:00,52.0,46.3,30.25,NNE,27,3.0,4.0,81,0.00,,,0.00,Wunderground v.1.15,2013-02-03 14:15:00,
2013-02-03 08:20:00,52.3,46.3,30.25,North,8,3.0,5.0,80,0.00,,,0.00,Wunderground v.1.15,2013-02-03 14:20:00,
2013-02-03 08:25:00,52.8,46.5,30.25,NNE,19,2.0,5.0,79,0.00,,,0.00,Wunderground v.1.15,2013-02-03 14:25:00,
2013-02-03 08:30:00,53.2,46.2,30.25,NNE,27,1.0,2.0,77,0.00,,,0.00,Wunderground v.1.15,2013-02-03 14:30:00,
2013-02-03 08:35:00,53.8,46.4,30.25,North,349,1.0,2.0,76,0.00,,,0.00,Wunderground v.1.15,2013-02-03 14:35:00,
2013-02-03 08:40:00,54.2,46.8,30.26,NNE,29,0.0,1.0,76,0.00,,,0.00,Wunderground v.1.15,2013-02-03 14:40:00,
2013-02-03 08:45:00,54.8,46.3,30.26,ENE,58,0.0,3.0,73,0.00,,,0.00,Wunderground v.1.15,2013-02-03 14:45:00,
2013-02-03 08:50:00,55.7,46.4,30.25,East,94,2.0,2.0,71,0.00,,,0.00,Wunderground v.1.15,2013-02-03 14:50:00,
2013-02-03 08:55:00,56.1,46.4,30.26,SE,129,3.0,5.0,70,0.00,,,0.00,Wunderground v.1.15,2013-02-03 14:55:00,
2013-02-03 09:00:00,55.6,46.7,30.25,ESE,122,2.0,3.0,72,0.00,,,0.00,Wunderground v.1.15,2013-02-03 15:00:00,
2013-02-03 09:05:00,55.8,46.2,30.25,ESE,122,3.0,4.0,70,0.00,,,0.00,Wunderground v.1.15,2013-02-03 15:05:00,
2013-02-03 09:10:00,56.0,46.4,30.25,East,79,2.0,4.0,70,0.00,,,0.00,Wunderground v.1.15,2013-02-03 15:10:00,
2013-02-03 09:15:00,56.2,46.9,30.25,ESE,120,5.0,5.0,71,0.00,,,0.00,Wunderground v.1.15,2013-02-03 15:15:00,
2013-02-03 09:20:00,55.8,46.5,30.25,SSE,155,2.0,3.0,71,0.00,,,0.00,Wunderground v.1.15,2013-02-03 15:20:00,
2013-02-03 09:25:00,55.8,46.9,30.26,SE,128,1.0,4.0,72,0.00,,,0.00,Wunderground v.1.15,2013-02-03 15:25:00,
2013-02-03 09:30:00,55.7,46.1,30.26,ESE,120,2.0,4.0,70,0.00,,,0.00,Wunderground v.1.15,2013-02-03 15:30:00,
2013-02-03 09:35:00,56.0,47.1,30.26,SSE,164,3.0,4.0,72,0.00,,,0.00,Wunderground v.1.15,2013-02-03 15:35:00,
2013-02-03 09:40:00,56.3,46.6,30.26,SE,142,2.0,4.0,70,0.00,,,0.00,Wunderground v.1.15,2013-02-03 15:40:00,
2013-02-03 09:45:00,56.6,46.9,30.26,SE,145,2.0,5.0,70,0.00,,,0.00,Wunderground v.1.15,2013-02-03 15:45:00,
2013-02-03 09:50:00,56.9,46.4,30.26,SSE,155,2.0,3.0,68,0.00,,,0.00,Wunderground v.1.15,2013-02-03 15:50:00,
2013-02-03 09:55:00,57.3,46.8,30.26,SSE,153,1.0,4.0,68,0.00,,,0.00,Wunderground v.1.15,2013-02-03 15:55:00,
2013-02-03 10:00:00,57.4,47.3,30.26,South,177,4.0,4.0,69,0.00,,,0.00,Wunderground v.1.15,2013-02-03 16:00:00,
2013-02-03 10:05:00,57.2,46.7,30.26,SSE,164,5.0,6.0,68,0.00,,,0.00,Wunderground v.1.15,2013-02-03 16:05:00,
2013-02-03 10:10:00,57.1,47.0,30.26,SE,128,2.0,4.0,69,0.00,,,0.00,Wunderground v.1.15,2013-02-03 16:10:00,
2013-02-03 10:15:00,57.2,46.3,30.26,South,169,4.0,5.0,67,0.00,,,0.00,Wunderground v.1.15,2013-02-03 16:15:00,
2013-02-03 10:20:00,57.2,45.9,30.26,SSE,158,3.0,3.0,66,0.00,,,0.00,Wunderground v.1.15,2013-02-03 16:20:00,
2013-02-03 10:26:00,57.3,46.8,30.26,SE,125,3.0,5.0,68,0.00,,,0.00,Wunderground v.1.15,2013-02-03 16:26:00,
2013-02-03 10:31:00,57.3,47.6,30.26,South,184,3.0,4.0,70,0.00,,,0.00,Wunderground v.1.15,2013-02-03 16:31:00,
2013-02-03 10:35:00,57.6,47.1,30.26,SE,142,2.0,4.0,68,0.00,,,0.00,Wunderground v.1.15,2013-02-03 16:35:00,
2013-02-03 10:40:00,57.7,46.8,30.25,SSW,197,3.0,4.0,67,0.00,,,0.00,Wunderground v.1.15,2013-02-03 16:40:00,
2013-02-03 10:45:00,57.8,46.5,30.25,SSE,156,3.0,4.0,66,0.00,,,0.00,Wunderground v.1.15,2013-02-03 16:45:00,
2013-02-03 10:50:00,58.0,47.1,30.26,SSE,160,3.0,5.0,67,0.00,,,0.00,Wunderground v.1.15,2013-02-03 16:50:00,
2013-02-03 10:55:00,58.2,47.3,30.25,SSE,162,4.0,5.0,67,0.00,,,0.00,Wunderground v.1.15,2013-02-03 16:55:00,
2013-02-03 11:00:00,58.1,46.8,30.25,South,179,5.0,5.0,66,0.00,,,0.00,Wunderground v.1.15,2013-02-03 17:00:00,
2013-02-03 11:05:00,58.0,44.6,30.25,SSE,160,5.0,5.0,61,0.00,,,0.00,Wunderground v.1.15,2013-02-03 17:05:00,
2013-02-03 11:10:00,58.2,46.5,30.24,South,191,5.0,6.0,65,0.00,,,0.00,Wunderground v.1.15,2013-02-03 17:10:00,
2013-02-03 11:15:00,58.2,47.7,30.24,SSW,210,5.0,6.0,68,0.00,,,0.00,Wunderground v.1.15,2013-02-03 17:15:00,
2013-02-03 11:20:00,58.2,47.7,30.24,SSW,201,5.0,6.0,68,0.00,,,0.00,Wunderground v.1.15,2013-02-03 17:20:00,
2013-02-03 11:25:00,58.4,48.7,30.24,South,186,5.0,6.0,70,0.00,,,0.00,Wunderground v.1.15,2013-02-03 17:25:00,
2013-02-03 11:31:00,58.6,48.1,30.23,South,188,4.0,6.0,68,0.00,,,0.00,Wunderground v.1.15,2013-02-03 17:31:00,
2013-02-03 11:36:00,58.7,48.2,30.23,SSE,155,6.0,7.0,68,0.00,,,0.00,Wunderground v.1.15,2013-02-03 17:36:00,
2013-02-03 11:41:00,58.8,48.3,30.22,SSE,156,5.0,6.0,68,0.00,,,0.00,Wunderground v.1.15,2013-02-03 17:41:00,
2013-02-03 11:46:00,58.9,48.4,30.22,SSE,154,3.0,6.0,68,0.00,,,0.00,Wunderground v.1.15,2013-02-03 17:46:00,
2013-02-03 11:51:00,59.1,48.9,30.22,SSE,150,4.0,4.0,69,0.00,,,0.00,Wunderground v.1.15,2013-02-03 17:51:00,
2013-02-03 11:56:00,59.5,48.9,30.22,SSE,162,5.0,7.0,68,0.00,,,0.00,Wunderground v.1.15,2013-02-03 17:56:00,
2013-02-03 12:01:00,59.7,49.1,30.22,SSE,158,6.0,6.0,68,0.00,,,0.00,Wunderground v.1.15,2013-02-03 18:01:00,
2013-02-03 12:06:00,59.9,48.5,30.22,South,174,7.0,9.0,66,0.00,,,0.00,Wunderground v.1.15,2013-02-03 18:06:00,
2013-02-03 12:11:00,59.9,50.1,30.21,South,169,3.0,6.0,70,0.00,,,0.00,Wunderground v.1.15,2013-02-03 18:11:00,
2013-02-03 12:16:00,60.2,48.8,30.21,South,184,3.0,8.0,66,0.00,,,0.00,Wunderground v.1.15,2013-02-03 18:16:00,
2013-02-03 12:21:00,60.3,48.9,30.20,SE,138,6.0,6.0,66,0.00,,,0.00,Wunderground v.1.15,2013-02-03 18:21:00,
2013-02-03 12:26:00,60.5,48.3,30.20,SSE,166,3.0,8.0,64,0.00,,,0.00,Wunderground v.1.15,2013-02-03 18:26:00,
2013-02-03 12:31:00,60.7,47.6,30.20,South,187,5.0,8.0,62,0.00,,,0.00,Wunderground v.1.15,2013-02-03 18:31:00,
2013-02-03 12:36:00,60.6,49.6,30.19,SW,214,6.0,10.0,67,0.00,,,0.00,Wunderground v.1.15,2013-02-03 18:36:00,
2013-02-03 12:41:00,60.3,47.6,30.19,SSE,160,4.0,7.0,63,0.00,,,0.00,Wunderground v.1.15,2013-02-03 18:41:00,
2013-02-03 12:46:00,60.5,49.1,30.19,SSE,162,7.0,9.0,66,0.00,,,0.00,Wunderground v.1.15,2013-02-03 18:46:00,
2013-02-03 12:51:00,60.7,50.1,30.19,SSE,160,6.0,7.0,68,0.00,,,0.00,Wunderground v.1.15,2013-02-03 18:51:00,
2013-02-03 12:56:00,60.3,50.1,30.19,SSE,152,7.0,9.0,69,0.00,,,0.00,Wunderground v.1.15,2013-02-03 18:56:00,
2013-02-03 13:01:00,60.1,50.3,30.18,SSW,198,5.0,8.0,70,0.00,,,0.00,Wunderground v.1.15,2013-02-03 19:01:00,
2013-02-03 13:06:00,60.2,49.6,30.18,SSW,193,7.0,8.0,68,0.00,,,0.00,Wunderground v.1.15,2013-02-03 19:06:00,
2013-02-03 13:11:00,60.5,49.9,30.18,South,188,8.0,9.0,68,0.00,,,0.00,Wunderground v.1.15,2013-02-03 19:11:00,
2013-02-03 13:16:00,60.5,50.3,30.18,SSE,158,5.0,9.0,69,0.00,,,0.00,Wunderground v.1.15,2013-02-03 19:16:00,
2013-02-03 13:21:00,60.6,51.5,30.18,SSE,149,8.0,8.0,72,0.00,,,0.00,Wunderground v.1.15,2013-02-03 19:21:00,
2013-02-03 13:26:00,60.4,51.0,30.17,SSW,197,7.0,9.0,71,0.00,,,0.00,Wunderground v.1.15,2013-02-03 19:26:00,
2013-02-03 13:31:00,60.7,50.5,30.17,South,173,6.0,7.0,69,0.00,,,0.00,Wunderground v.1.15,2013-02-03 19:31:00,
2013-02-03 13:36:00,60.9,51.4,30.17,South,172,3.0,8.0,71,0.00,,,0.00,Wunderground v.1.15,2013-02-03 19:36:00,
2013-02-03 13:41:00,60.7,50.9,30.17,South,184,8.0,8.0,70,0.00,,,0.00,Wunderground v.1.15,2013-02-03 19:41:00,
2013-02-03 13:46:00,60.8,51.3,30.17,SSW,208,7.0,10.0,71,0.00,,,0.00,Wunderground v.1.15,2013-02-03 19:46:00,
2013-02-03 13:51:00,61.0,51.5,30.17,SSW,204,5.0,9.0,71,0.00,,,0.00,Wunderground v.1.15,2013-02-03 19:51:00,
2013-02-03 13:56:00,61.3,51.4,30.16,SW,236,6.0,9.0,70,0.00,,,0.00,Wunderground v.1.15,2013-02-03 19:56:00,
2013-02-03 14:01:00,61.3,50.6,30.16,WSW,239,7.0,8.0,68,0.00,,,0.00,Wunderground v.1.15,2013-02-03 20:01:00,
2013-02-03 14:06:00,61.3,51.0,30.16,SSW,203,2.0,8.0,69,0.00,,,0.00,Wunderground v.1.15,2013-02-03 20:06:00,
2013-02-03 14:11:00,61.6,50.9,30.16,SW,226,3.0,5.0,68,0.00,,,0.00,Wunderground v.1.15,2013-02-03 20:11:00,
2013-02-03 14:16:00,61.7,49.8,30.16,SW,222,1.0,9.0,65,0.00,,,0.00,Wunderground v.1.15,2013-02-03 20:16:00,
2013-02-03 14:21:00,62.1,51.4,30.15,SW,233,3.0,7.0,68,0.00,,,0.00,Wunderground v.1.15,2013-02-03 20:21:00,
2013-02-03 14:26:00,62.1,50.6,30.15,SW,218,3.0,9.0,66,0.00,,,0.00,Wunderground v.1.15,2013-02-03 20:26:00,
2013-02-03 14:31:00,62.3,50.0,30.15,SE,146,1.0,5.0,64,0.00,,,0.00,Wunderground v.1.15,2013-02-03 20:31:00,
2013-02-03 14:36:00,62.8,52.1,30.15,SSW,212,4.0,7.0,68,0.00,,,0.00,Wunderground v.1.15,2013-02-03 20:36:00,
2013-02-03 14:41:00,62.5,51.0,30.15,SW,228,2.0,7.0,66,0.00,,,0.00,Wunderground v.1.15,2013-02-03 20:41:00,
2013-02-03 14:46:00,62.6,51.1,30.14,WSW,245,1.0,8.0,66,0.00,,,0.00,Wunderground v.1.15,2013-02-03 20:46:00,
2013-02-03 14:51:00,62.3,50.8,30.14,SW,233,3.0,7.0,66,0.00,,,0.00,Wunderground v.1.15,2013-02-03 20:51:00,
2013-02-03 14:56:00,62.3,50.8,30.14,SSW,202,6.0,7.0,66,0.00,,,0.00,Wunderground v.1.15,2013-02-03 20:56:00,
2013-02-03 15:01:00,62.4,50.1,30.14,WSW,240,6.0,6.0,64,0.00,,,0.00,Wunderground v.1.15,2013-02-03 21:01:00,
2013-02-03 15:06:00,62.5,50.2,30.14,South,184,5.0,9.0,64,0.00,,,0.00,Wunderground v.1.15,2013-02-03 21:06:00,
2013-02-03 15:11:00,62.6,50.7,30.14,SSW,202,6.0,6.0,65,0.00,,,0.00,Wunderground v.1.15,2013-02-03 21:11:00,
2013-02-03 15:16:00,62.6,51.1,30.14,SW,218,3.0,7.0,66,0.00,,,0.00,Wunderground v.1.15,2013-02-03 21:16:00,
2013-02-03 15:21:00,62.7,51.2,30.14,SSW,212,6.0,8.0,66,0.00,,,0.00,Wunderground v.1.15,2013-02-03 21:21:00,
2013-02-03 15:26:00,62.7,51.2,30.14,South,188,3.0,8.0,66,0.00,,,0.00,Wunderground v.1.15,2013-02-03 21:26:00,
2013-02-03 15:31:00,62.4,50.9,30.14,SE,136,1.0,7.0,66,0.00,,,0.00,Wunderground v.1.15,2013-02-03 21:31:00,
2013-02-03 15:36:00,62.5,51.4,30.14,SW,217,2.0,8.0,67,0.00,,,0.00,Wunderground v.1.15,2013-02-03 21:36:00,
2013-02-03 15:41:00,62.5,51.8,30.14,SE,132,1.0,6.0,68,0.00,,,0.00,Wunderground v.1.15,2013-02-03 21:41:00,
2013-02-03 15:46:00,62.4,51.7,30.13,SW,221,4.0,9.0,68,0.00,,,0.00,Wunderground v.1.15,2013-02-03 21:46:00,
2013-02-03 15:51:00,62.3,51.6,30.13,West,278,2.0,7.0,68,0.00,,,0.00,Wunderground v.1.15,2013-02-03 21:51:00,
2013-02-03 15:56:00,62.4,51.7,30.13,SSW,210,3.0,7.0,68,0.00,,,0.00,Wunderground v.1.15,2013-02-03 21:56:00,
2013-02-03 16:02:00,62.5,52.6,30.14,WSW,254,3.0,5.0,70,0.00,,,0.00,Wunderground v.1.15,2013-02-03 22:02:00,
2013-02-03 16:07:00,62.5,53.0,30.13,SW,228,7.0,8.0,71,0.00,,,0.00,Wunderground v.1.15,2013-02-03 22:07:00,
2013-02-03 16:12:00,62.4,53.3,30.13,West,266,3.0,7.0,72,0.00,,,0.00,Wunderground v.1.15,2013-02-03 22:12:00,
2013-02-03 16:17:00,62.2,53.4,30.13,SSW,201,1.0,7.0,73,0.00,,,0.00,Wunderground v.1.15,2013-02-03 22:17:00,
2013-02-03 16:22:00,62.0,52.9,30.13,WSW,245,5.0,7.0,72,0.00,,,0.00,Wunderground v.1.15,2013-02-03 22:22:00,
2013-02-03 16:27:00,62.1,53.0,30.13,SW,214,0.0,7.0,72,0.00,,,0.00,Wunderground v.1.15,2013-02-03 22:27:00,
2013-02-03 16:32:00,61.9,52.4,30.13,WSW,238,2.0,5.0,71,0.00,,,0.00,Wunderground v.1.15,2013-02-03 22:32:00,
2013-02-03 16:37:00,61.6,52.5,30.13,SW,226,6.0,8.0,72,0.00,,,0.00,Wunderground v.1.15,2013-02-03 22:37:00,
2013-02-03 16:42:00,61.1,53.1,30.13,SW,229,2.0,6.0,75,0.00,,,0.00,Wunderground v.1.15,2013-02-03 22:42:00,
2013-02-03 16:47:00,60.7,53.4,30.13,West,260,3.0,6.0,77,0.00,,,0.00,Wunderground v.1.15,2013-02-03 22:47:00,
2013-02-03 16:52:00,60.5,52.5,30.13,South,176,0.0,7.0,75,0.00,,,0.00,Wunderground v.1.15,2013-02-03 22:52:00,
2013-02-03 16:57:00,60.2,52.2,30.13,WNW,296,3.0,7.0,75,0.00,,,0.00,Wunderground v.1.15,2013-02-03 22:57:00,
2013-02-03 17:02:00,60.1,52.1,30.13,WSW,248,0.0,5.0,75,0.00,,,0.00,Wunderground v.1.15,2013-02-03 23:02:00,
2013-02-03 17:07:00,59.9,51.6,30.13,South,190,3.0,7.0,74,0.00,,,0.00,Wunderground v.1.15,2013-02-03 23:07:00,
2013-02-03 17:12:00,59.8,51.9,30.13,WSW,238,2.0,4.0,75,0.00,,,0.00,Wunderground v.1.15,2013-02-03 23:12:00,
2013-02-03 17:17:00,59.7,52.1,30.13,SW,232,1.0,5.0,76,0.00,,,0.00,Wunderground v.1.15,2013-02-03 23:17:00,
2013-02-03 17:22:00,59.5,51.9,30.13,WSW,245,2.0,5.0,76,0.00,,,0.00,Wunderground v.1.15,2013-02-03 23:22:00,
2013-02-03 17:27:00,59.2,52.0,30.13,SSW,203,2.0,5.0,77,0.00,,,0.00,Wunderground v.1.15,2013-02-03 23:27:00,
2013-02-03 17:32:00,59.0,52.1,30.13,WSW,240,0.0,4.0,78,0.00,,,0.00,Wunderground v.1.15,2013-02-03 23:32:00,
2013-02-03 17:37:00,58.9,52.1,30.13,SW,226,7.0,8.0,78,0.00,,,0.00,Wunderground v.1.15,2013-02-03 23:37:00,
2013-02-03 17:42:00,58.8,52.0,30.12,WSW,245,2.0,4.0,78,0.00,,,0.00,Wunderground v.1.15,2013-02-03 23:42:00,
2013-02-03 17:47:00,58.6,52.1,30.12,WSW,255,2.0,4.0,79,0.00,,,0.00,Wunderground v.1.15,2013-02-03 23:47:00,
2013-02-03 17:52:00,58.4,51.9,30.12,SSW,200,0.0,2.0,79,0.00,,,0.00,Wunderground v.1.15,2013-02-03 23:52:00,
2013-02-03 17:57:00,58.2,52.1,30.12,SW,217,1.0,5.0,80,0.00,,,0.00,Wunderground v.1.15,2013-02-03 23:57:00,
2013-02-03 18:02:00,58.0,51.9,30.12,WSW,250,0.0,3.0,80,0.00,,,0.00,Wunderground v.1.15,2013-02-04 00:02:00,
2013-02-03 18:07:00,57.8,51.7,30.12,WSW,239,0.0,4.0,80,0.00,,,0.00,Wunderground v.1.15,2013-02-04 00:07:00,
2013-02-03 18:12:00,57.8,51.7,30.12,WSW,238,0.0,2.0,80,0.00,,,0.00,Wunderground v.1.15,2013-02-04 00:12:00,
2013-02-03 18:17:00,57.7,51.2,30.12,West,270,0.0,3.0,79,0.00,,,0.00,Wunderground v.1.15,2013-02-04 00:17:00,
2013-02-03 18:22:00,57.6,50.8,30.12,West,260,0.0,4.0,78,0.00,,,0.00,Wunderground v.1.15,2013-02-04 00:22:00,
2013-02-03 18:27:00,57.6,50.4,30.13,SSW,203,2.0,4.0,77,0.00,,,0.00,Wunderground v.1.15,2013-02-04 00:27:00,
2013-02-03 18:32:00,57.6,50.4,30.13,West,274,0.0,3.0,77,0.00,,,0.00,Wunderground v.1.15,2013-02-04 00:32:00,
2013-02-03 18:37:00,57.5,50.3,30.13,SW,235,0.0,3.0,77,0.00,,,0.00,Wunderground v.1.15,2013-02-04 00:37:00,
2013-02-03 18:42:00,57.2,49.7,30.13,WSW,242,0.0,2.0,76,0.00,,,0.00,Wunderground v.1.15,2013-02-04 00:42:00,
2013-02-03 18:47:00,57.1,48.5,30.13,WSW,258,0.0,3.0,73,0.00,,,0.00,Wunderground v.1.15,2013-02-04 00:47:00,
2013-02-03 18:52:00,57.1,47.8,30.13,West,262,1.0,2.0,71,0.00,,,0.00,Wunderground v.1.15,2013-02-04 00:52:00,
2013-02-03 18:57:00,56.9,47.6,30.13,West,265,0.0,2.0,71,0.00,,,0.00,Wunderground v.1.15,2013-02-04 00:57:00,
2013-02-03 19:02:00,56.7,47.0,30.13,West,263,0.0,2.0,70,0.00,,,0.00,Wunderground v.1.15,2013-02-04 01:02:00,
2013-02-03 19:07:00,56.6,46.5,30.13,West,259,1.0,2.0,69,0.00,,,0.00,Wunderground v.1.15,2013-02-04 01:07:00,
2013-02-03 19:12:00,56.4,46.0,30.13,West,269,1.0,4.0,68,0.00,,,0.00,Wunderground v.1.15,2013-02-04 01:12:00,
2013-02-03 19:17:00,56.4,45.2,30.13,West,277,1.0,4.0,66,0.00,,,0.00,Wunderground v.1.15,2013-02-04 01:17:00,
2013-02-03 19:22:00,56.2,45.4,30.13,West,267,0.0,2.0,67,0.00,,,0.00,Wunderground v.1.15,2013-02-04 01:22:00,
2013-02-03 19:27:00,55.9,44.7,30.13,West,273,0.0,2.0,66,0.00,,,0.00,Wunderground v.1.15,2013-02-04 01:27:00,
2013-02-03 19:32:00,55.8,44.6,30.13,West,265,1.0,3.0,66,0.00,,,0.00,Wunderground v.1.15,2013-02-04 01:32:00,
2013-02-03 19:37:00,55.8,44.6,30.13,West,281,1.0,3.0,66,0.00,,,0.00,Wunderground v.1.15,2013-02-04 01:37:00,
2013-02-03 19:42:00,55.9,44.7,30.13,West,277,2.0,2.0,66,0.00,,,0.00,Wunderground v.1.15,2013-02-04 01:42:00,
2013-02-03 19:47:00,56.0,44.4,30.13,WNW,292,1.0,4.0,65,0.00,,,0.00,Wunderground v.1.15,2013-02-04 01:47:00,
2013-02-03 19:52:00,55.9,44.3,30.12,WNW,294,2.0,3.0,65,0.00,,,0.00,Wunderground v.1.15,2013-02-04 01:52:00,
2013-02-03 19:57:00,55.9,43.9,30.12,WNW,292,1.0,3.0,64,0.00,,,0.00,Wunderground v.1.15,2013-02-04 01:57:00,
2013-02-03 20:02:00,55.9,43.9,30.12,WNW,293,0.0,2.0,64,0.00,,,0.00,Wunderground v.1.15,2013-02-04 02:02:00,
2013-02-03 20:07:00,55.7,43.7,30.13,WNW,289,0.0,2.0,64,0.00,,,0.00,Wunderground v.1.15,2013-02-04 02:07:00,
2013-02-03 20:12:00,55.7,43.7,30.13,West,281,1.0,2.0,64,0.00,,,0.00,Wunderground v.1.15,2013-02-04 02:12:00,
2013-02-03 20:17:00,55.5,43.5,30.13,West,278,1.0,2.0,64,0.00,,,0.00,Wunderground v.1.15,2013-02-04 02:17:00,
2013-02-03 20:22:00,55.3,43.3,30.13,West,278,1.0,1.0,64,0.00,,,0.00,Wunderground v.1.15,2013-02-04 02:22:00,
2013-02-03 20:27:00,55.2,43.2,30.13,West,278,0.0,1.0,64,0.00,,,0.00,Wunderground v.1.15,2013-02-04 02:27:00,
2013-02-03 20:32:00,55.3,43.3,30.13,West,278,1.0,2.0,64,0.00,,,0.00,Wunderground v.1.15,2013-02-04 02:32:00,
2013-02-03 20:37:00,55.4,43.4,30.13,WNW,283,1.0,3.0,64,0.00,,,0.00,Wunderground v.1.15,2013-02-04 02:37:00,
2013-02-03 20:42:00,55.4,43.4,30.13,WNW,284,1.0,1.0,64,0.00,,,0.00,Wunderground v.1.15,2013-02-04 02:42:00,
2013-02-03 20:47:00,55.4,43.4,30.13,WNW,283,0.0,1.0,64,0.00,,,0.00,Wunderground v.1.15,2013-02-04 02:47:00,
2013-02-03 20:52:00,55.2,43.2,30.13,WNW,292,1.0,2.0,64,0.00,,,0.00,Wunderground v.1.15,2013-02-04 02:52:00,
2013-02-03 20:57:00,55.1,42.7,30.13,WNW,297,2.0,2.0,63,0.00,,,0.00,Wunderground v.1.15,2013-02-04 02:57:00,
2013-02-03 21:02:00,55.1,42.3,30.13,WNW,297,1.0,2.0,62,0.00,,,0.00,Wunderground v.1.15,2013-02-04 03:02:00,
2013-02-03 21:07:00,54.7,41.9,30.13,WNW,297,0.0,2.0,62,0.00,,,0.00,Wunderground v.1.15,2013-02-04 03:07:00,
2013-02-03 21:12:00,54.1,41.8,30.13,WNW,297,0.0,0.0,63,0.00,,,0.00,Wunderground v.1.15,2013-02-04 03:12:00,
2013-02-03 21:17:00,53.7,41.4,30.13,WNW,297,0.0,0.0,63,0.00,,,0.00,Wunderground v.1.15,2013-02-04 03:17:00,
2013-02-03 21:22:00,53.4,41.5,30.13,WNW,297,0.0,0.0,64,0.00,,,0.00,Wunderground v.1.15,2013-02-04 03:22:00,
2013-02-03 21:27:00,53.3,41.4,30.13,WNW,297,0.0,0.0,64,0.00,,,0.00,Wunderground v.1.15,2013-02-04 03:27:00,
2013-02-03 21:32:00,53.4,41.5,30.13,WNW,297,0.0,0.0,64,0.00,,,0.00,Wunderground v.1.15,2013-02-04 03:32:00,
2013-02-03 21:37:00,53.7,41.4,30.13,WNW,297,0.0,1.0,63,0.00,,,0.00,Wunderground v.1.15,2013-02-04 03:37:00,
2013-02-03 21:42:00,54.0,41.7,30.14,WNW,297,0.0,1.0,63,0.00,,,0.00,Wunderground v.1.15,2013-02-04 03:42:00,
2013-02-03 21:47:00,53.9,41.6,30.14,WNW,297,1.0,1.0,63,0.00,,,0.00,Wunderground v.1.15,2013-02-04 03:47:00,
2013-02-03 21:52:00,54.0,42.1,30.14,WNW,297,0.0,1.0,64,0.00,,,0.00,Wunderground v.1.15,2013-02-04 03:52:00,
2013-02-03 21:57:00,54.0,42.1,30.14,WNW,297,0.0,1.0,64,0.00,,,0.00,Wunderground v.1.15,2013-02-04 03:57:00,
2013-02-03 22:02:00,53.7,42.2,30.14,WNW,297,0.0,0.0,65,0.00,,,0.00,Wunderground v.1.15,2013-02-04 04:02:00,
2013-02-03 22:07:00,53.5,42.0,30.14,WNW,296,0.0,0.0,65,0.00,,,0.00,Wunderground v.1.15,2013-02-04 04:07:00,
2013-02-03 22:12:00,53.4,41.9,30.14,WNW,297,0.0,0.0,65,0.00,,,0.00,Wunderground v.1.15,2013-02-04 04:12:00,
2013-02-03 22:17:00,52.8,42.1,30.13,WNW,297,0.0,0.0,67,0.00,,,0.00,Wunderground v.1.15,2013-02-04 04:17:00,
2013-02-03 22:22:00,51.9,41.7,30.13,WNW,297,0.0,1.0,68,0.00,,,0.00,Wunderground v.1.15,2013-02-04 04:22:00,
2013-02-03 22:27:00,51.4,41.6,30.13,WNW,297,0.0,1.0,69,0.00,,,0.00,Wunderground v.1.15,2013-02-04 04:27:00,
2013-02-03 22:32:00,51.4,41.6,30.13,WNW,297,0.0,1.0,69,0.00,,,0.00,Wunderground v.1.15,2013-02-04 04:32:00,
2013-02-03 22:37:00,51.4,41.2,30.13,WNW,297,1.0,1.0,68,0.00,,,0.00,Wunderground v.1.15,2013-02-04 04:37:00,
2013-02-03 22:42:00,51.8,41.2,30.13,WNW,297,0.0,1.0,67,0.00,,,0.00,Wunderground v.1.15,2013-02-04 04:42:00,
2013-02-03 22:47:00,51.9,41.3,30.13,WNW,297,1.0,1.0,67,0.00,,,0.00,Wunderground v.1.15,2013-02-04 04:47:00,
2013-02-03 22:52:00,52.4,41.8,30.13,WNW,297,1.0,1.0,67,0.00,,,0.00,Wunderground v.1.15,2013-02-04 04:52:00,
2013-02-03 22:57:00,52.7,42.0,30.13,NW,306,2.0,2.0,67,0.00,,,0.00,Wunderground v.1.15,2013-02-04 04:57:00,
2013-02-03 23:01:00,52.5,42.6,30.12,NW,308,1.0,1.0,69,0.00,,,0.00,Wunderground v.1.15,2013-02-04 05:01:00,
2013-02-03 23:02:00,52.4,42.5,30.12,NW,304,1.0,1.0,69,0.00,,,0.00,Wunderground v.1.15,2013-02-04 05:02:00,
2013-02-03 23:03:00,52.4,42.5,30.12,NW,304,0.0,1.0,69,0.00,,,0.00,Wunderground v.1.15,2013-02-04 05:03:00,
2013-02-03 23:08:00,52.1,43.0,30.12,NW,322,2.0,2.0,71,0.00,,,0.00,Wunderground v.1.15,2013-02-04 05:08:00,
2013-02-03 23:13:00,52.1,43.7,30.12,NW,324,1.0,3.0,73,0.00,,,0.00,Wunderground v.1.15,2013-02-04 05:13:00,
2013-02-03 23:18:00,51.8,44.5,30.12,NNW,336,2.0,3.0,76,0.00,,,0.00,Wunderground v.1.15,2013-02-04 05:18:00,
2013-02-03 23:23:00,51.4,45.1,30.12,NNW,330,1.0,2.0,79,0.00,,,0.00,Wunderground v.1.15,2013-02-04 05:23:00,
2013-02-03 23:28:00,50.7,45.1,30.12,NNW,333,2.0,3.0,81,0.00,,,0.00,Wunderground v.1.15,2013-02-04 05:28:00,
2013-02-03 23:33:00,50.4,45.1,30.12,NNW,328,2.0,3.0,82,0.00,,,0.00,Wunderground v.1.15,2013-02-04 05:33:00,
2013-02-03 23:38:00,50.4,45.1,30.12,NNW,333,2.0,3.0,82,0.00,,,0.00,Wunderground v.1.15,2013-02-04 05:38:00,
2013-02-03 23:43:00,50.1,44.5,30.11,NNW,338,1.0,3.0,81,0.00,,,0.00,Wunderground v.1.15,2013-02-04 05:43:00,
2013-02-03 23:48:00,49.6,43.7,30.11,North,356,1.0,3.0,80,0.00,,,0.00,Wunderground v.1.15,2013-02-04 05:48:00,
2013-02-03 23:53:00,49.1,43.2,30.11,North,8,1.0,3.0,80,0.00,,,0.00,Wunderground v.1.15,2013-02-04 05:53:00,
2013-02-03 23:58:00,48.8,43.2,30.11,North,356,1.0,3.0,81,0.00,,,0.00,Wunderground v.1.15,2013-02-04 05:58:00,